This is the latest recevied weather packets stored in our database for station/object N4CRH-13. If no packets are shown the sender has not sent any weather packets the latest 1 day(s).
| Time | Temp. | Humidity | Pressure | Rain* | Wind** | Luminosity | Snow |
|---|---|---|---|---|---|---|---|
| 1836274778 | 16.67° C | 39% | 1300.4 hPa | 0 mm | 0.45 m/s, 52° | 0 W/m² | - |
| 1836274476 | 16.67° C | 38% | 1300.4 hPa | 0 mm | 0 m/s | 0 W/m² | - |
| 1836274330 | 17.22° C | 38% | 1300.5 hPa | 0 mm | 0 m/s | 0 W/m² | - |
| 1836274174 | 16.67° C | 39% | 1300.4 hPa | 0 mm | 0.45 m/s, 317° | 0 W/m² | - |
| 1836273874 | 16.11° C | 40% | 1300.5 hPa | 0 mm | 0.45 m/s, 304° | 0 W/m² | - |
| 1778049743 | -2.22° C | 99% | 1292.8 hPa | 0 mm | 2.68 m/s, 284° | 0 W/m² | - |
| 1778049441 | -2.22° C | 99% | 1292.8 hPa | 0 mm | 2.68 m/s, 284° | 0 W/m² | - |
| 1778049138 | -2.22° C | 99% | 1292.8 hPa | 0 mm | 2.68 m/s, 284° | 0 W/m² | - |
| 1778048836 | -2.22° C | 99% | 1292.8 hPa | 0 mm | 2.24 m/s, 294° | 0 W/m² | - |
| 1778048533 | -2.22° C | 99% | 1292.6 hPa | 0 mm | 2.68 m/s, 296° | 0 W/m² | - |
| 1778048229 | -2.22° C | 99% | 1292.6 hPa | 0 mm | 2.24 m/s, 276° | 0 W/m² | - |
| 1778047926 | -2.22° C | 99% | 1292.6 hPa | 0 mm | 2.24 m/s, 295° | 0 W/m² | - |
| 1778047625 | -2.22° C | 99% | 1292.9 hPa | 0 mm | 3.13 m/s, 297° | 0 W/m² | - |
| 1778047321 | -2.22° C | 99% | 1292.4 hPa | 0 mm | 3.13 m/s, 305° | 0 W/m² | - |
| 1778047018 | -2.22° C | 99% | 1292.6 hPa | 0 mm | 2.24 m/s, 302° | 0 W/m² | - |
| 1778046715 | -2.22° C | 99% | 1292.4 hPa | 0 mm | 2.24 m/s, 297° | 0 W/m² | - |
| 1778046412 | -2.22° C | 99% | 1292.4 hPa | 0 mm | 2.24 m/s, 302° | 0 W/m² | - |
| 1778046108 | -2.22° C | 99% | 1292.3 hPa | 0 mm | 2.68 m/s, 300° | 0 W/m² | - |
| 1778045806 | -2.22° C | 99% | 1292.4 hPa | 0 mm | 2.68 m/s, 297° | 0 W/m² | - |
| 1778045504 | -2.22° C | 99% | 1292.3 hPa | 0 mm | 1.79 m/s, 310° | 0 W/m² | - |
| 1778045202 | -2.22° C | 99% | 1292.4 hPa | 0 mm | 2.24 m/s, 291° | 0 W/m² | - |
| 1778044900 | -2.22° C | 99% | 1292.4 hPa | 0 mm | 2.24 m/s, 302° | 0 W/m² | - |
| 1778044597 | -2.22° C | 99% | 1292.5 hPa | 0 mm | 2.24 m/s, 296° | 0 W/m² | - |
| 1778044293 | -2.22° C | 99% | 1292.5 hPa | 0 mm | 2.24 m/s, 301° | 0 W/m² | - |
| 1778043992 | -2.22° C | 99% | 1292.3 hPa | 0 mm | 2.24 m/s, 304° | 0 W/m² | - |
* Rain latest hour (hover to see other rain measurements)
** Current wind speed in m/s (hover to see current wind gust speed)